Flag for U.S.A. Weather past 2 weeks in Sunrise, Florida, U.S.A.

Now
84 °F

Thunderstorms. Cloudy.


Feels Like: 93 °F
Forecast: 79 / 90 °F
Wind: 9 mph from Southeast

Location: Fort Lauderdale Executive Airport

Current Time: Jul 4, 2015 at 12:14:30 PM

Latest Report: Jul 4, 2015 at 11:53 AM


Visibility: 10 mi

Pressure: 30.14 "Hg

Humidity: 77%

Dew point: 76 °F

Location of SunriseLocation

Historic Weather in Sunrise — Graph

°F

Sunrise temperature yesterday

Maximum temperature yesterday: 92 °F (at 12:53 PM)
Minimum temperature yesterday: 81 °F (at 6:53 AM)
Average temperature yesterday: 86 °F

Past Weeks' High & Low Weather Summary

 TemperatureHumidityPressure
High92 °F (Jun 19, 2:53 PM)100% (Jun 26, 5:53 AM)30.18 "Hg (Jun 26, 5:53 AM)
Low73 °F (Jun 29, 6:02 PM)47% (Jun 20, 2:53 PM)30.03 "Hg (Jun 28, 3:53 AM)
Average85 °F70%30.10 "Hg
* Reported Jun 19 10:53 AM — Jul 4 10:53 AM, Sunrise, Weather by CustomWeather, © 2015

Note: Actual official high and low records may vary slightly from our data, if they occured in-between our weather recording intervals... More about our weather records

Advertising

Sunrise weather history for previous 24 hours

 ConditionsComfort  
Time TempWeatherWind HumidityBarometerVisibility
10:53 AM
Sat, Jul 4
83 °FThunderstorms. Broken clouds.12 mph77%30.14 "Hg10 mi
10:04 AM79 °FThunderstorms. Broken clouds.6 mph82%30.13 "Hg10 mi
9:53 AM78 °FThunderstorms. Mostly cloudy.5 mph82%30.13 "Hg10 mi
8:53 AM81 °FScattered clouds.No wind88%30.12 "Hg10 mi
7:53 AM79 °FBroken clouds.No wind90%30.11 "Hg10 mi
6:53 AM78 °FPassing clouds.6 mph90%30.09 "Hg10 mi
5:53 AM78 °FClear.No wind87%30.08 "Hg10 mi
4:53 AM80 °FClear.No wind81%30.07 "Hg10 mi
3:53 AM79 °FClear.No wind88%30.07 "Hg10 mi
2:53 AM81 °FClear.5 mph82%30.08 "Hg10 mi
1:53 AM81 °FThunderstorms. Passing clouds.5 mph77%30.09 "Hg10 mi
12:53 AM82 °FThunderstorms. Clear.3 mph77%30.11 "Hg10 mi
11:53 PM
Fri, Jul 3
83 °FThunderstorms. Passing clouds.7 mph79%30.11 "Hg10 mi
10:53 PM84 °FThunderstorms. Passing clouds.7 mph72%30.11 "Hg10 mi
9:53 PM85 °FThunderstorms. Passing clouds.6 mph65%30.11 "Hg10 mi
8:53 PM85 °FScattered clouds.8 mph75%30.09 "Hg10 mi
7:53 PM85 °FScattered clouds.12 mph72%30.07 "Hg10 mi
6:53 PM86 °FScattered clouds.13 mph67%30.05 "Hg10 mi
5:53 PM86 °FScattered clouds.13 mph67%30.07 "Hg10 mi
4:53 PM87 °FScattered clouds.12 mph67%30.09 "Hg10 mi
3:53 PM90 °FPassing clouds.15 mph57%30.07 "Hg10 mi
2:53 PM91 °FScattered clouds.15 mph60%30.07 "Hg10 mi
1:53 PM90 °FScattered clouds.14 mph59%30.09 "Hg10 mi
12:53 PM92 °FPassing clouds.15 mph54%30.10 "Hg10 mi
Weather by CustomWeather, © 2015

See weather overviewHow to use our weather pages